DECAYED

OBJECT C, 51096 (Decayed)

Orbit data source: Space-Track

You're viewing an Uncataloged Satellite

Recently launched and/or uncataloged satellites may have evolving metadata. Metadata may include but not limited to: Owner, Maufacturer, Bus, Motor, and Mission.

OBJECT C, 51096 was a satellite in LEO that was launched on Thu, 13 Jan 2022 UTC via an LAUNCHERONE launch vehicle from the Pegasus Launch, Western Range Air Space (WRAS). Unknown objects in Earth's orbit typically refer to objects detected orbiting the Earth but have not yet been identified or cataloged. These objects could be anything from previously untracked satellites, spent rocket stages, debris from satellite collisions, or even natural meteoroids temporarily captured by Earth's gravity. This object's orbit decayed before it could be identified.

Not visible in the next 10 days
OBJECT C details
Identifier
51096, 2022-003C
Orbit
Decayed
Last TLE update4 months ago
Origin
Flag of TBDCORN/LARCN (TBD)
ManufacturerCornell
MissionDecayed Amateur Technology
Bus & MotorCUBESAT 3U, Unknown motor
Mass4 kg wet, 4 kg dry
Launch date (UTC)
2022-01-13 (3 years ago)
Launch vehicle
LAUNCHERONE
Launch site
Pegasus Launch, Western Range Air Space (WRAS)
Object typeUnknown
Shape & HBRBox, 0.3 m
Radar Cross Section0.035 m², Small (<0.1 m²)

Expand to show TLE details & history

TLE from 4 months ago
0 OBJECT C
1 51096U 22003C   24229.64932609  .11828593  10716-4  32976-3 0  9992
2 51096  44.9174 335.3400 0006464 325.2105  34.8398 16.45189140145664
Epoch: 2024-08-16T15:35Z
Definitive object data (Epoch: 2024-08-16T15:35:01.774Z)
Latitude-0.00001°
Longitude136.06236°
Altitude148.561 km
Speed7.821 km/s
True Right ascension22h 21m 21s
True Declination0° 00' 00"
Sunlit
Object was in full shadow at TLE epoch
Visualization observer readout
Observer readout values are unavailable because the object's trajectory could not be propagated. This is usually caused when the trajectory data is faulty or the object's orbit has decayed.
Visualization observer readout
Observer readout values are unavailable because the object's trajectory could not be propagated. This is usually caused when the trajectory data is faulty or the object's orbit has decayed.
Orbital elements
Apogee altitude157.962 km
Perigee altitude149.518 km
Semi-major axis6,531.877 km
Eccentricity0.0006464
Inclination44.9174°
RAAN335.34°
Arg. of periapsis325.2105°
True anomaly34.88214°
Mean anomaly34.8398°
Eccentric anomaly34.86097°
Mean motion4.11137 °/min
BSTAR0.00032976
Orbital period87.56 mins
Loading maneuver chart data...
Loading historical data...
Loading historical data...
Loading historical data...
Loading historical data...
Loading historical data...
Loading historical data...
Loading historical data...

OBJECT C Visibility forecast

Observer location: undefined°, undefined

This satellite is decayed
Span
Click to sort rows by Start time (UTC) header in descending order
Start Az.
Max El. time (UTC)
Max El. Az.
Max El.
End time (UTC)
End Az.
|